Weather History for KHRO - October, 2014

Change the Weather History Date:

Monday, October 20, 2014

  Actual Average Record
Temperature  
Mean Temperature 62 °F 58 °F  
Max Temperature 72 °F 69 °F 87 °F (1927)
Min Temperature 52 °F 47 °F 27 °F (1989)
Degree Days  
Heating Degree Days 3 8  
Month to date heating degree days 92 117  
Since 1 July heating degree days 126 160  
Cooling Degree Days 0 1  
Month to date cooling degree days 39 26  
Year to date cooling degree days 1335 1405  
Growing Degree Days 12 (Base 50)    
Moisture  
Dew Point 55 °F    
Average Humidity 81    
Maximum Humidity 100    
Minimum Humidity 61    
Precipitation  
Precipitation 0.08 in 0.12 in 2.40 in (1984)
Month to date precipitation 4.91 2.22  
Year to date precipitation 36.74 35.38  
Snow  
Snow 0.00 in 0.00 in T in (1976)
Month to date snowfall 0.0 0.0  
Since 1 July snowfall 0.0 0.0  
Since 1 September snowfall 0.0 0.0  
Snow Depth 0.00 in    
Sea Level Pressure  
Sea Level Pressure 30.04 in    
Wind  
Wind Speed 6 mph (West)    
Max Wind Speed 14 mph    
Max Gust Speed 18 mph    
Visibility 10 miles    
Events Rain    
T = Trace of Precipitation, MM = Missing Value Source: NWS Daily Summary

Daily Weather History Graph

Daily Weather History Graph

Search for Another Location

Airport or City:

Trip Planner

Search our weather history database for the weather conditions in past years. The results will help you decide how hot, cold, wet, or windy it might be!

Date:

Astronomy

Oct. 20, 2014 Rise Set
Actual Time 7:24 AM CDT 6:30 PM CDT
Civil Twilight 6:58 AM CDT 6:56 PM CDT
Nautical Twilight 6:28 AM CDT 7:26 PM CDT
Astronomical Twilight 5:58 AM CDT 7:55 PM CDT
Moon 4:18 AM CDT (10/20) 4:48 PM CDT (10/20)
Length of Visible Light 11h 58m
Length of Day
11h 05m
Waning Crescent, 10% of the Moon is Illuminated
Oct 20
Waning Crescent
Oct 23
New
Oct 30
First Quarter
Nov 6
Full
Nov 14
Last Quarter

Hourly Weather History & Observations

Time (CDT) Temp. Dew Point Humidity Pressure Visibility Wind Dir Wind Speed Gust Speed Precip Events Conditions
12:53 AM 52.0 °F 48.9 °F 89% 30.07 in 10.0 mi Calm Calm - N/A   Partly Cloudy
1:53 AM 53.1 °F 48.9 °F 86% 30.05 in 10.0 mi South 4.6 mph - N/A   Mostly Cloudy
2:53 AM 53.1 °F 51.1 °F 93% 30.04 in 10.0 mi SSE 4.6 mph - 0.05 in   Overcast
3:53 AM 53.1 °F 51.1 °F 93% 30.03 in 10.0 mi Calm Calm - N/A   Overcast
4:53 AM 52.0 °F 51.1 °F 97% 30.04 in 10.0 mi Calm Calm - N/A   Mostly Cloudy
5:53 AM 55.9 °F 51.1 °F 84% 30.05 in 10.0 mi WSW 8.1 mph - 0.00 in   Overcast
6:53 AM 55.0 °F 54.0 °F 96% 30.05 in 8.0 mi West 5.8 mph - 0.03 in Rain Light Rain
7:53 AM 57.0 °F 53.1 °F 87% 30.06 in 10.0 mi West 4.6 mph - 0.00 in   Overcast
8:53 AM 59.0 °F 53.1 °F 81% 30.06 in 10.0 mi West 8.1 mph - N/A   Overcast
9:53 AM 64.0 °F 53.1 °F 67% 30.07 in 10.0 mi West 9.2 mph - N/A   Clear
10:53 AM 64.9 °F 55.0 °F 70% 30.07 in 10.0 mi West 9.2 mph - N/A   Mostly Cloudy
11:53 AM 66.2 °F 55.4 °F 68% 30.08 in 10.0 mi West 10.4 mph - N/A   Mostly Cloudy
12:53 PM 71.1 °F 57.9 °F 63% 30.05 in 10.0 mi WNW 9.2 mph - N/A   Scattered Clouds
1:53 PM 69.1 °F 57.9 °F 68% 30.03 in 9.0 mi NW 8.1 mph - N/A   Overcast
2:53 PM 69.1 °F 57.9 °F 68% 30.02 in 10.0 mi West 5.8 mph - N/A   Overcast
3:53 PM 70.0 °F 57.9 °F 65% 30.01 in 9.0 mi Variable 4.6 mph - N/A   Overcast
4:53 PM 70.0 °F 57.9 °F 65% 30.01 in 10.0 mi WNW 6.9 mph - N/A   Partly Cloudy
5:38 PM 68.0 °F 59.0 °F 73% 30.03 in 10.0 mi West 5.8 mph - N/A   Partly Cloudy
5:53 PM 66.9 °F 59.0 °F 76% 30.01 in 10.0 mi West 3.5 mph - N/A   Clear
6:53 PM 61.0 °F 59.0 °F 93% 30.03 in 10.0 mi Calm Calm - N/A   Clear
7:53 PM 59.0 °F 57.9 °F 96% 30.04 in 9.0 mi West 4.6 mph - N/A   Clear
8:53 PM 60.1 °F 57.0 °F 90% 30.04 in 10.0 mi WSW 6.9 mph - N/A   Clear
9:53 PM 60.1 °F 57.0 °F 90% 30.06 in 10.0 mi WSW 6.9 mph - N/A   Clear
10:53 PM 57.9 °F 57.0 °F 97% 30.06 in 9.0 mi West 5.8 mph - N/A   Clear
11:53 PM 57.9 °F 57.0 °F 97% 30.06 in 8.0 mi West 5.8 mph - N/A   Clear